map of HBE home
HBE - Airport
Location
City:  Alexandria, Al Iskandariyah (Alexandria), Egypt
Name:Borg el Arab
ICAO:HEBA
IATA:HBE

Details
Type:Airport (Aerodrome, Airfield)
Use:Public/Civil, International (customs port of entry)
Latitude:3055'04"N (30.917669)
Longitude:2941'47"E (29.696408)
Datum:WGS 1984
Elevation:177 ft (54 m)
Variation:4.38E (WMM2015 magnetic declination)
0.09 annual change
Runways:3
Longest:11156 × 148 ft (3400 × 45 m), paved

Time
Time Zone:UTC+2
Local Time:

Weather
METAR:HEBA 171100Z 19010KT CAVOK 22/11 Q1017 NOSIG
TAF:HEBA 170515Z 1706/1812 VRB03KT 3000 BR NSC
TEMPO 1706/1708 0500 FG
BECMG 1709/1711 28010KT 9999 SCT020

Related Locations
Nearby:
Farthest:RVV: 11921 mi / 19185 km
Raivavae, Tubuai Islands, Austral Islands, PF

Find:

   beyond  
but within

Other Information
Maps:
NOTAMs:
Links:
Sources:

  
flag of Egypt
flag of Al Iskandariyah (Alexandria)
  

Sectional Chart

Flight Planning
at skyvector.com

Satellite Image

Google Maps Satellite view

 

Copyright © 2004-2017 Karl L. Swartz. All rights reserved.
The Great Circle Mapper name and logo are trademarks of the Great Circle Mapper.
All other trademarks mentioned herein belong to their respective owners.
Please see credits for attibutions and further copyright information.

  Follow gcmap on Facebook Follow gcmap on Twitter Follow gcmap on Google+ GCmap on LinkedIn

hCard Microformat

Geo Microformat